Time,TemperatureF,DewpointF,PressureIn,WindDirection,WindDirectionDegrees,WindSpeedMPH,WindSpeedGustMPH,Humidity,HourlyPrecipIn,Conditions,Clouds,dailyrainin,SoftwareType,DateUTC
2013-05-31 00:00:00,74.4,63.4,30.07,SSW,208,4.0,16.0,68,0.00,,,0.00,WUHU216DAVISVP2,2013-05-31 04:00:00,
2013-05-31 00:01:00,74.4,63.4,30.07,South,179,4.0,16.0,68,0.00,,,0.00,WUHU216DAVISVP2,2013-05-31 04:01:00,
2013-05-31 00:02:00,74.4,63.4,30.07,SSW,192,2.0,16.0,68,0.00,,,0.00,WUHU216DAVISVP2,2013-05-31 04:02:00,
2013-05-31 00:04:00,74.4,63.4,30.07,South,183,14.0,16.0,68,0.00,,,0.00,WUHU216DAVISVP2,2013-05-31 04:04:00,
2013-05-31 00:09:00,74.4,63.8,30.07,SSW,198,4.0,14.0,69,0.00,,,0.00,WUHU216DAVISVP2,2013-05-31 04:09:00,
2013-05-31 00:14:00,74.2,63.6,30.07,South,184,4.0,14.0,69,0.00,,,0.00,WUHU216DAVISVP2,2013-05-31 04:14:00,
2013-05-31 00:19:00,74.0,63.4,30.07,South,188,6.0,12.0,69,0.00,,,0.00,WUHU216DAVISVP2,2013-05-31 04:19:00,
2013-05-31 00:24:00,73.8,63.6,30.07,South,174,2.0,8.0,70,0.00,,,0.00,WUHU216DAVISVP2,2013-05-31 04:24:00,
2013-05-31 00:29:00,73.6,63.4,30.07,South,173,2.0,10.0,70,0.00,,,0.00,WUHU216DAVISVP2,2013-05-31 04:29:00,
2013-05-31 00:34:00,73.5,63.7,30.07,SSW,195,2.0,10.0,71,0.00,,,0.00,WUHU216DAVISVP2,2013-05-31 04:34:00,
2013-05-31 00:39:00,73.5,63.3,30.07,South,179,0.0,10.0,70,0.00,,,0.00,WUHU216DAVISVP2,2013-05-31 04:39:00,
2013-05-31 00:44:00,73.4,63.6,30.07,SSW,194,0.0,6.0,71,0.00,,,0.00,WUHU216DAVISVP2,2013-05-31 04:44:00,
2013-05-31 00:49:00,73.3,63.5,30.07,SW,225,2.0,8.0,71,0.00,,,0.00,WUHU216DAVISVP2,2013-05-31 04:49:00,
2013-05-31 00:54:00,73.3,63.5,30.07,WSW,254,0.0,8.0,71,0.00,,,0.00,WUHU216DAVISVP2,2013-05-31 04:54:00,
2013-05-31 00:59:00,73.0,63.2,30.07,South,177,2.0,8.0,71,0.00,,,0.00,WUHU216DAVISVP2,2013-05-31 04:59:00,
2013-05-31 01:04:00,72.9,63.3,30.08,SSW,192,2.0,8.0,72,0.00,,,0.00,WUHU216DAVISVP2,2013-05-31 05:04:00,
2013-05-31 01:09:00,72.6,63.6,30.08,SSW,192,2.0,8.0,73,0.00,,,0.00,WUHU216DAVISVP2,2013-05-31 05:09:00,
2013-05-31 01:14:00,72.6,63.6,30.08,South,189,4.0,8.0,73,0.00,,,0.00,WUHU216DAVISVP2,2013-05-31 05:14:00,
2013-05-31 01:19:00,72.6,63.6,30.08,South,188,2.0,10.0,73,0.00,,,0.00,WUHU216DAVISVP2,2013-05-31 05:19:00,
2013-05-31 01:24:00,72.4,63.4,30.08,South,182,2.0,10.0,73,0.00,,,0.00,WUHU216DAVISVP2,2013-05-31 05:24:00,
2013-05-31 01:30:00,72.2,63.2,30.08,SSW,208,2.0,8.0,73,0.00,,,0.00,WUHU216DAVISVP2,2013-05-31 05:30:00,
2013-05-31 01:35:00,72.1,63.5,30.07,South,190,2.0,8.0,74,0.00,,,0.00,WUHU216DAVISVP2,2013-05-31 05:35:00,
2013-05-31 01:40:00,71.9,63.3,30.07,South,184,0.0,12.0,74,0.00,,,0.00,WUHU216DAVISVP2,2013-05-31 05:40:00,
2013-05-31 01:45:00,71.7,63.5,30.07,SSW,198,2.0,12.0,75,0.00,,,0.00,WUHU216DAVISVP2,2013-05-31 05:45:00,
2013-05-31 01:50:00,71.5,63.3,30.07,South,180,0.0,8.0,75,0.00,,,0.00,WUHU216DAVISVP2,2013-05-31 05:50:00,
2013-05-31 01:55:00,71.4,63.2,30.07,South,186,0.0,12.0,75,0.00,,,0.00,WUHU216DAVISVP2,2013-05-31 05:55:00,
2013-05-31 02:00:00,71.3,63.1,30.07,SE,137,2.0,12.0,75,0.00,,,0.00,WUHU216DAVISVP2,2013-05-31 06:00:00,
2013-05-31 02:05:00,71.1,63.3,30.07,South,176,0.0,10.0,76,0.00,,,0.00,WUHU216DAVISVP2,2013-05-31 06:05:00,
2013-05-31 02:10:00,71.0,63.2,30.07,SSE,163,2.0,12.0,76,0.00,,,0.00,WUHU216DAVISVP2,2013-05-31 06:10:00,
2013-05-31 02:15:00,71.0,63.2,30.07,SSW,195,2.0,12.0,76,0.00,,,0.00,WUHU216DAVISVP2,2013-05-31 06:15:00,
2013-05-31 02:20:00,70.9,63.1,30.07,East,92,4.0,12.0,76,0.00,,,0.00,WUHU216DAVISVP2,2013-05-31 06:20:00,
2013-05-31 02:25:00,70.8,63.0,30.07,SE,130,4.0,10.0,76,0.00,,,0.00,WUHU216DAVISVP2,2013-05-31 06:25:00,
2013-05-31 02:30:00,70.6,63.2,30.07,SSE,167,2.0,8.0,77,0.00,,,0.00,WUHU216DAVISVP2,2013-05-31 06:30:00,
2013-05-31 02:35:00,70.4,63.0,30.07,SSE,162,2.0,10.0,77,0.00,,,0.00,WUHU216DAVISVP2,2013-05-31 06:35:00,
2013-05-31 02:40:00,70.3,63.2,30.07,SSW,195,2.0,10.0,78,0.00,,,0.00,WUHU216DAVISVP2,2013-05-31 06:40:00,
2013-05-31 02:45:00,70.3,63.2,30.06,South,186,4.0,10.0,78,0.00,,,0.00,WUHU216DAVISVP2,2013-05-31 06:45:00,
2013-05-31 02:50:00,70.3,63.2,30.06,South,182,2.0,10.0,78,0.00,,,0.00,WUHU216DAVISVP2,2013-05-31 06:50:00,
2013-05-31 02:55:00,70.3,63.2,30.06,South,169,2.0,12.0,78,0.00,,,0.00,WUHU216DAVISVP2,2013-05-31 06:55:00,
2013-05-31 03:00:00,70.3,63.2,30.06,South,184,2.0,12.0,78,0.00,,,0.00,WUHU216DAVISVP2,2013-05-31 07:00:00,
2013-05-31 03:05:00,70.3,63.2,30.06,SSE,157,0.0,14.0,78,0.00,,,0.00,WUHU216DAVISVP2,2013-05-31 07:05:00,
2013-05-31 03:10:00,70.3,62.9,30.06,SSE,166,0.0,14.0,77,0.00,,,0.00,WUHU216DAVISVP2,2013-05-31 07:10:00,
2013-05-31 03:15:00,70.3,63.2,30.06,South,173,4.0,14.0,78,0.00,,,0.00,WUHU216DAVISVP2,2013-05-31 07:15:00,
2013-05-31 03:20:00,70.3,62.9,30.06,SSE,156,10.0,12.0,77,0.00,,,0.00,WUHU216DAVISVP2,2013-05-31 07:20:00,
2013-05-31 03:25:00,70.3,62.9,30.06,SSW,210,8.0,14.0,77,0.00,,,0.00,WUHU216DAVISVP2,2013-05-31 07:25:00,
2013-05-31 03:30:00,70.3,62.9,30.06,South,184,0.0,14.0,77,0.00,,,0.00,WUHU216DAVISVP2,2013-05-31 07:30:00,
2013-05-31 03:35:00,70.3,62.9,30.06,South,189,6.0,12.0,77,0.00,,,0.00,WUHU216DAVISVP2,2013-05-31 07:35:00,
2013-05-31 03:40:00,70.3,63.2,30.06,SW,231,0.0,12.0,78,0.00,,,0.00,WUHU216DAVISVP2,2013-05-31 07:40:00,
2013-05-31 03:45:00,70.3,62.9,30.06,SE,130,2.0,12.0,77,0.00,,,0.00,WUHU216DAVISVP2,2013-05-31 07:45:00,
2013-05-31 03:51:00,70.5,63.1,30.06,SSE,151,8.0,12.0,77,0.00,,,0.00,WUHU216DAVISVP2,2013-05-31 07:51:00,
2013-05-31 03:56:00,70.6,63.2,30.05,South,180,6.0,12.0,77,0.00,,,0.00,WUHU216DAVISVP2,2013-05-31 07:56:00,
2013-05-31 04:01:00,70.6,63.2,30.05,SSW,202,4.0,14.0,77,0.00,,,0.00,WUHU216DAVISVP2,2013-05-31 08:01:00,
2013-05-31 04:06:00,70.6,62.8,30.05,SSW,197,0.0,14.0,76,0.00,,,0.00,WUHU216DAVISVP2,2013-05-31 08:06:00,
2013-05-31 04:11:00,70.6,63.2,30.05,South,189,4.0,14.0,77,0.00,,,0.00,WUHU216DAVISVP2,2013-05-31 08:11:00,
2013-05-31 04:16:00,70.6,63.2,30.05,ESE,121,2.0,18.0,77,0.00,,,0.00,WUHU216DAVISVP2,2013-05-31 08:16:00,
2013-05-31 04:21:00,70.6,63.2,30.05,SW,221,4.0,18.0,77,0.00,,,0.00,WUHU216DAVISVP2,2013-05-31 08:21:00,
2013-05-31 04:26:00,70.5,63.1,30.06,South,175,6.0,12.0,77,0.00,,,0.00,WUHU216DAVISVP2,2013-05-31 08:26:00,
2013-05-31 04:31:00,70.4,63.0,30.06,SSE,155,0.0,12.0,77,0.00,,,0.00,WUHU216DAVISVP2,2013-05-31 08:31:00,
2013-05-31 04:36:00,70.3,62.9,30.06,SSW,192,0.0,12.0,77,0.00,,,0.00,WUHU216DAVISVP2,2013-05-31 08:36:00,
2013-05-31 04:41:00,70.1,63.0,30.05,South,188,4.0,14.0,78,0.00,,,0.00,WUHU216DAVISVP2,2013-05-31 08:41:00,
2013-05-31 04:46:00,70.0,62.9,30.05,SE,134,2.0,14.0,78,0.00,,,0.00,WUHU216DAVISVP2,2013-05-31 08:46:00,
2013-05-31 04:51:00,69.9,62.8,30.06,SSW,192,0.0,14.0,78,0.00,,,0.00,WUHU216DAVISVP2,2013-05-31 08:51:00,
2013-05-31 04:56:00,69.7,62.6,30.06,SSE,151,0.0,14.0,78,0.00,,,0.00,WUHU216DAVISVP2,2013-05-31 08:56:00,
2013-05-31 05:01:00,69.5,62.8,30.06,South,169,0.0,10.0,79,0.00,,,0.00,WUHU216DAVISVP2,2013-05-31 09:01:00,
2013-05-31 05:06:00,69.4,62.7,30.06,SSE,148,18.0,18.0,79,0.00,,,0.00,WUHU216DAVISVP2,2013-05-31 09:06:00,
2013-05-31 05:11:00,69.5,62.8,30.06,South,182,8.0,18.0,79,0.00,,,0.00,WUHU216DAVISVP2,2013-05-31 09:11:00,
2013-05-31 05:16:00,69.4,62.7,30.06,SSW,198,0.0,12.0,79,0.00,,,0.00,WUHU216DAVISVP2,2013-05-31 09:16:00,
2013-05-31 05:21:00,69.4,62.7,30.06,SSE,167,4.0,12.0,79,0.00,,,0.00,WUHU216DAVISVP2,2013-05-31 09:21:00,
2013-05-31 05:26:00,69.4,62.7,30.06,SW,219,4.0,14.0,79,0.00,,,0.00,WUHU216DAVISVP2,2013-05-31 09:26:00,
2013-05-31 05:31:00,69.4,62.7,30.06,SW,214,4.0,14.0,79,0.00,,,0.00,WUHU216DAVISVP2,2013-05-31 09:31:00,
2013-05-31 05:36:00,69.4,62.7,30.06,SSW,210,0.0,16.0,79,0.00,,,0.00,WUHU216DAVISVP2,2013-05-31 09:36:00,
2013-05-31 05:41:00,69.4,62.7,30.06,South,175,0.0,16.0,79,0.00,,,0.00,WUHU216DAVISVP2,2013-05-31 09:41:00,
2013-05-31 05:46:00,69.2,62.8,30.06,South,186,4.0,12.0,80,0.00,,,0.00,WUHU216DAVISVP2,2013-05-31 09:46:00,
2013-05-31 05:51:00,69.2,62.8,30.06,South,180,0.0,8.0,80,0.00,,,0.00,WUHU216DAVISVP2,2013-05-31 09:51:00,
2013-05-31 05:57:00,69.1,62.7,30.06,SSW,207,4.0,10.0,80,0.00,,,0.00,WUHU216DAVISVP2,2013-05-31 09:57:00,
2013-05-31 06:02:00,69.1,62.7,30.06,South,176,0.0,14.0,80,0.00,,,0.00,WUHU216DAVISVP2,2013-05-31 10:02:00,
2013-05-31 06:07:00,69.1,62.7,30.06,South,181,2.0,14.0,80,0.00,,,0.00,WUHU216DAVISVP2,2013-05-31 10:07:00,
2013-05-31 06:12:00,69.0,63.0,30.06,SE,146,2.0,12.0,81,0.00,,,0.00,WUHU216DAVISVP2,2013-05-31 10:12:00,
2013-05-31 06:17:00,68.9,62.9,30.06,SSE,155,2.0,12.0,81,0.00,,,0.00,WUHU216DAVISVP2,2013-05-31 10:17:00,
2013-05-31 06:22:00,69.0,62.7,30.06,SSW,194,8.0,12.0,80,0.00,,,0.00,WUHU216DAVISVP2,2013-05-31 10:22:00,
2013-05-31 06:27:00,69.0,62.7,30.06,SSE,167,12.0,12.0,80,0.00,,,0.00,WUHU216DAVISVP2,2013-05-31 10:27:00,
2013-05-31 06:32:00,69.1,62.7,30.06,SE,138,4.0,14.0,80,0.00,,,0.00,WUHU216DAVISVP2,2013-05-31 10:32:00,
2013-05-31 06:37:00,69.0,63.0,30.06,SSW,198,0.0,10.0,81,0.00,,,0.00,WUHU216DAVISVP2,2013-05-31 10:37:00,
2013-05-31 06:42:00,69.1,62.7,30.06,WSW,248,10.0,14.0,80,0.00,,,0.00,WUHU216DAVISVP2,2013-05-31 10:42:00,
2013-05-31 06:47:00,69.3,62.9,30.06,NW,326,0.0,14.0,80,0.00,,,0.00,WUHU216DAVISVP2,2013-05-31 10:47:00,
2013-05-31 06:52:00,69.3,62.9,30.06,South,170,4.0,14.0,80,0.00,,,0.00,WUHU216DAVISVP2,2013-05-31 10:52:00,
2013-05-31 06:57:00,69.5,63.1,30.07,WNW,294,4.0,14.0,80,0.00,,,0.00,WUHU216DAVISVP2,2013-05-31 10:57:00,
2013-05-31 07:02:00,69.6,63.2,30.06,South,173,0.0,20.0,80,0.00,,,0.00,WUHU216DAVISVP2,2013-05-31 11:02:00,
2013-05-31 07:07:00,69.7,63.3,30.06,South,184,2.0,20.0,80,0.00,,,0.00,WUHU216DAVISVP2,2013-05-31 11:07:00,
2013-05-31 07:12:00,69.8,63.4,30.06,SSW,201,0.0,14.0,80,0.00,,,0.00,WUHU216DAVISVP2,2013-05-31 11:12:00,
2013-05-31 07:17:00,70.0,63.6,30.06,West,260,4.0,14.0,80,0.00,,,0.00,WUHU216DAVISVP2,2013-05-31 11:17:00,
2013-05-31 07:22:00,70.1,63.4,30.06,SSW,192,0.0,8.0,79,0.00,,,0.00,WUHU216DAVISVP2,2013-05-31 11:22:00,
2013-05-31 07:27:00,70.2,63.5,30.06,SSE,157,0.0,8.0,79,0.00,,,0.00,WUHU216DAVISVP2,2013-05-31 11:27:00,
2013-05-31 07:32:00,70.4,63.7,30.06,East,101,4.0,12.0,79,0.00,,,0.00,WUHU216DAVISVP2,2013-05-31 11:32:00,
2013-05-31 07:37:00,70.6,63.5,30.06,SSW,199,4.0,14.0,78,0.00,,,0.00,WUHU216DAVISVP2,2013-05-31 11:37:00,
2013-05-31 07:42:00,70.9,63.8,30.06,South,188,4.0,14.0,78,0.00,,,0.00,WUHU216DAVISVP2,2013-05-31 11:42:00,
2013-05-31 07:47:00,71.2,64.1,30.06,SW,219,4.0,12.0,78,0.00,,,0.00,WUHU216DAVISVP2,2013-05-31 11:47:00,
2013-05-31 07:52:00,71.6,64.1,30.06,South,176,0.0,12.0,77,0.00,,,0.00,WUHU216DAVISVP2,2013-05-31 11:52:00,
2013-05-31 07:57:00,72.0,64.5,30.06,SW,232,4.0,10.0,77,0.00,,,0.00,WUHU216DAVISVP2,2013-05-31 11:57:00,
2013-05-31 08:02:00,72.2,64.3,30.06,NNW,339,8.0,10.0,76,0.00,,,0.00,WUHU216DAVISVP2,2013-05-31 12:02:00,
2013-05-31 08:07:00,72.4,64.2,30.06,South,190,0.0,10.0,75,0.00,,,0.00,WUHU216DAVISVP2,2013-05-31 12:07:00,
2013-05-31 08:13:00,72.7,64.8,30.06,SSW,197,4.0,8.0,76,0.00,,,0.00,WUHU216DAVISVP2,2013-05-31 12:13:00,
2013-05-31 08:18:00,72.9,65.0,30.06,South,182,0.0,10.0,76,0.00,,,0.00,WUHU216DAVISVP2,2013-05-31 12:18:00,
2013-05-31 08:22:00,73.2,64.9,30.06,ESE,117,0.0,10.0,75,0.00,,,0.00,WUHU216DAVISVP2,2013-05-31 12:22:00,
2013-05-31 08:27:00,73.6,65.0,30.06,SSW,201,4.0,10.0,74,0.00,,,0.00,WUHU216DAVISVP2,2013-05-31 12:27:00,
2013-05-31 08:32:00,74.1,65.1,30.06,SW,216,0.0,10.0,73,0.00,,,0.00,WUHU216DAVISVP2,2013-05-31 12:32:00,
2013-05-31 08:38:00,74.5,65.4,30.06,West,271,0.0,10.0,73,0.00,,,0.00,WUHU216DAVISVP2,2013-05-31 12:38:00,
2013-05-31 08:43:00,75.0,65.5,30.06,SW,235,8.0,10.0,72,0.00,,,0.00,WUHU216DAVISVP2,2013-05-31 12:43:00,
2013-05-31 08:48:00,75.5,65.2,30.07,ESE,106,0.0,14.0,70,0.00,,,0.00,WUHU216DAVISVP2,2013-05-31 12:48:00,
2013-05-31 08:53:00,76.0,65.7,30.07,SW,236,2.0,14.0,70,0.00,,,0.00,WUHU216DAVISVP2,2013-05-31 12:53:00,
2013-05-31 08:58:00,76.3,65.6,30.07,SSE,168,0.0,12.0,69,0.00,,,0.00,WUHU216DAVISVP2,2013-05-31 12:58:00,
2013-05-31 09:03:00,76.6,65.5,30.07,SSW,211,10.0,22.0,68,0.00,,,0.00,WUHU216DAVISVP2,2013-05-31 13:03:00,
2013-05-31 09:08:00,77.0,65.4,30.07,West,265,4.0,22.0,67,0.00,,,0.00,WUHU216DAVISVP2,2013-05-31 13:08:00,
2013-05-31 09:13:00,77.3,65.7,30.07,WNW,303,0.0,18.0,67,0.00,,,0.00,WUHU216DAVISVP2,2013-05-31 13:13:00,
2013-05-31 09:18:00,77.6,65.6,30.07,SW,215,2.0,20.0,66,0.00,,,0.00,WUHU216DAVISVP2,2013-05-31 13:18:00,
2013-05-31 09:23:00,77.9,65.4,30.07,West,276,6.0,20.0,65,0.00,,,0.00,WUHU216DAVISVP2,2013-05-31 13:23:00,
2013-05-31 09:28:00,78.1,66.0,30.07,NE,39,6.0,18.0,66,0.00,,,0.00,WUHU216DAVISVP2,2013-05-31 13:28:00,
2013-05-31 09:33:00,78.3,65.8,30.06,East,90,4.0,18.0,65,0.00,,,0.00,WUHU216DAVISVP2,2013-05-31 13:33:00,
2013-05-31 09:38:00,78.7,66.2,30.06,South,173,0.0,18.0,65,0.00,,,0.00,WUHU216DAVISVP2,2013-05-31 13:38:00,
2013-05-31 09:43:00,79.0,66.0,30.06,SSW,210,2.0,20.0,64,0.00,,,0.00,WUHU216DAVISVP2,2013-05-31 13:43:00,
2013-05-31 09:48:00,79.1,65.7,30.06,West,276,10.0,20.0,63,0.00,,,0.00,WUHU216DAVISVP2,2013-05-31 13:48:00,
2013-05-31 09:53:00,79.2,66.2,30.06,NW,321,4.0,18.0,64,0.00,,,0.00,WUHU216DAVISVP2,2013-05-31 13:53:00,
2013-05-31 09:58:00,79.5,66.5,30.06,WNW,283,2.0,14.0,64,0.00,,,0.00,WUHU216DAVISVP2,2013-05-31 13:58:00,
2013-05-31 10:03:00,80.0,67.0,30.06,SSE,148,8.0,14.0,64,0.00,,,0.00,WUHU216DAVISVP2,2013-05-31 14:03:00,
2013-05-31 10:08:00,80.3,67.3,30.06,South,169,8.0,12.0,64,0.00,,,0.00,WUHU216DAVISVP2,2013-05-31 14:08:00,
2013-05-31 10:13:00,80.5,66.5,30.06,South,181,22.0,22.0,62,0.00,,,0.00,WUHU216DAVISVP2,2013-05-31 14:13:00,
2013-05-31 10:18:00,80.6,67.1,30.05,SE,128,2.0,22.0,63,0.00,,,0.00,WUHU216DAVISVP2,2013-05-31 14:18:00,
2013-05-31 10:23:00,81.0,67.0,30.05,SSW,211,0.0,18.0,62,0.00,,,0.00,WUHU216DAVISVP2,2013-05-31 14:23:00,
2013-05-31 10:28:00,81.3,66.3,30.06,SE,126,10.0,24.0,60,0.00,,,0.00,WUHU216DAVISVP2,2013-05-31 14:28:00,
2013-05-31 10:33:00,81.6,67.1,30.05,SSW,197,4.0,24.0,61,0.00,,,0.00,WUHU216DAVISVP2,2013-05-31 14:33:00,
2013-05-31 10:38:00,81.8,67.3,30.05,WSW,241,0.0,14.0,61,0.00,,,0.00,WUHU216DAVISVP2,2013-05-31 14:38:00,
2013-05-31 10:43:00,81.9,66.9,30.05,ENE,72,0.0,14.0,60,0.00,,,0.00,WUHU216DAVISVP2,2013-05-31 14:43:00,
2013-05-31 10:48:00,82.3,67.3,30.05,ESE,105,2.0,10.0,60,0.00,,,0.00,WUHU216DAVISVP2,2013-05-31 14:48:00,
2013-05-31 10:53:00,82.8,67.7,30.05,South,185,4.0,12.0,60,0.00,,,0.00,WUHU216DAVISVP2,2013-05-31 14:53:00,
2013-05-31 10:59:00,83.0,66.4,30.05,SSE,154,2.0,20.0,57,0.00,,,0.00,WUHU216DAVISVP2,2013-05-31 14:59:00,
2013-05-31 11:04:00,83.2,66.6,30.05,West,266,10.0,20.0,57,0.00,,,0.00,WUHU216DAVISVP2,2013-05-31 15:04:00,
2013-05-31 11:09:00,83.3,66.2,30.05,South,182,6.0,20.0,56,0.00,,,0.00,WUHU216DAVISVP2,2013-05-31 15:09:00,
2013-05-31 11:14:00,83.5,66.9,30.04,NW,321,2.0,20.0,57,0.00,,,0.00,WUHU216DAVISVP2,2013-05-31 15:14:00,
2013-05-31 11:19:00,84.0,66.8,30.04,East,95,2.0,14.0,56,0.00,,,0.00,WUHU216DAVISVP2,2013-05-31 15:19:00,
2013-05-31 11:24:00,84.1,65.9,30.04,SSW,200,4.0,16.0,54,0.00,,,0.00,WUHU216DAVISVP2,2013-05-31 15:24:00,
2013-05-31 11:29:00,84.1,65.3,30.04,SSW,193,2.0,20.0,53,0.00,,,0.00,WUHU216DAVISVP2,2013-05-31 15:29:00,
2013-05-31 11:34:00,84.1,66.9,30.04,West,276,8.0,20.0,56,0.00,,,0.00,WUHU216DAVISVP2,2013-05-31 15:34:00,
2013-05-31 11:39:00,84.2,65.4,30.04,South,170,2.0,20.0,53,0.00,,,0.00,WUHU216DAVISVP2,2013-05-31 15:39:00,
2013-05-31 11:44:00,84.6,65.2,30.04,WSW,250,4.0,20.0,52,0.00,,,0.00,WUHU216DAVISVP2,2013-05-31 15:44:00,
2013-05-31 11:49:00,84.6,65.2,30.04,WNW,290,2.0,28.0,52,0.00,,,0.00,WUHU216DAVISVP2,2013-05-31 15:49:00,
2013-05-31 11:54:00,84.9,65.5,30.04,SSE,155,16.0,28.0,52,0.00,,,0.00,WUHU216DAVISVP2,2013-05-31 15:54:00,
2013-05-31 11:59:00,84.9,65.5,30.04,West,281,4.0,24.0,52,0.00,,,0.00,WUHU216DAVISVP2,2013-05-31 15:59:00,
2013-05-31 12:04:00,85.1,66.2,30.04,SW,236,2.0,24.0,53,0.00,,,0.00,WUHU216DAVISVP2,2013-05-31 16:04:00,
2013-05-31 12:09:00,85.4,67.1,30.04,ESE,105,4.0,14.0,54,0.00,,,0.00,WUHU216DAVISVP2,2013-05-31 16:09:00,
2013-05-31 12:14:00,85.8,66.3,30.03,SSW,197,0.0,16.0,52,0.00,,,0.00,WUHU216DAVISVP2,2013-05-31 16:14:00,
2013-05-31 12:19:00,85.6,66.1,30.03,WSW,247,6.0,26.0,52,0.00,,,0.00,WUHU216DAVISVP2,2013-05-31 16:19:00,
2013-05-31 12:24:00,85.4,66.5,30.03,NNE,32,10.0,26.0,53,0.00,,,0.00,WUHU216DAVISVP2,2013-05-31 16:24:00,
2013-05-31 12:29:00,85.4,65.4,30.02,NNW,348,6.0,20.0,51,0.00,,,0.00,WUHU216DAVISVP2,2013-05-31 16:29:00,
2013-05-31 12:34:00,85.4,66.0,30.02,WSW,246,4.0,22.0,52,0.00,,,0.00,WUHU216DAVISVP2,2013-05-31 16:34:00,
2013-05-31 12:39:00,85.6,65.0,30.02,West,267,6.0,22.0,50,0.00,,,0.00,WUHU216DAVISVP2,2013-05-31 16:39:00,
2013-05-31 12:45:00,85.5,65.5,30.02,SW,230,8.0,22.0,51,0.00,,,0.00,WUHU216DAVISVP2,2013-05-31 16:45:00,
2013-05-31 12:50:00,85.7,65.1,30.02,NNE,33,4.0,26.0,50,0.00,,,0.00,WUHU216DAVISVP2,2013-05-31 16:50:00,
2013-05-31 12:55:00,85.8,65.2,30.02,West,273,6.0,26.0,50,0.00,,,0.00,WUHU216DAVISVP2,2013-05-31 16:55:00,
2013-05-31 13:00:00,85.7,65.1,30.02,West,278,6.0,22.0,50,0.00,,,0.00,WUHU216DAVISVP2,2013-05-31 17:00:00,
2013-05-31 13:05:00,85.9,65.3,30.01,SE,134,20.0,22.0,50,0.00,,,0.00,WUHU216DAVISVP2,2013-05-31 17:05:00,
2013-05-31 13:10:00,85.3,65.3,30.01,NNW,347,6.0,26.0,51,0.00,,,0.00,WUHU216DAVISVP2,2013-05-31 17:10:00,
2013-05-31 13:15:00,85.2,64.6,30.01,West,269,6.0,26.0,50,0.00,,,0.00,WUHU216DAVISVP2,2013-05-31 17:15:00,
2013-05-31 13:20:00,85.3,65.9,30.01,SE,140,4.0,20.0,52,0.00,,,0.00,WUHU216DAVISVP2,2013-05-31 17:20:00,
2013-05-31 13:25:00,85.7,65.7,30.00,West,281,10.0,28.0,51,0.00,,,0.00,WUHU216DAVISVP2,2013-05-31 17:25:00,
2013-05-31 13:30:00,86.0,65.3,30.00,West,278,6.0,28.0,50,0.00,,,0.00,WUHU216DAVISVP2,2013-05-31 17:30:00,
2013-05-31 13:35:00,86.5,67.0,29.99,WSW,248,4.0,30.0,52,0.00,,,0.00,WUHU216DAVISVP2,2013-05-31 17:35:00,
2013-05-31 13:40:00,86.8,66.1,30.00,SE,138,2.0,30.0,50,0.00,,,0.00,WUHU216DAVISVP2,2013-05-31 17:40:00,
2013-05-31 13:45:00,87.0,66.3,29.99,West,261,8.0,20.0,50,0.00,,,0.00,WUHU216DAVISVP2,2013-05-31 17:45:00,
2013-05-31 13:50:00,87.0,66.3,29.99,SW,225,6.0,20.0,50,0.00,,,0.00,WUHU216DAVISVP2,2013-05-31 17:50:00,
2013-05-31 13:55:00,87.2,65.9,29.99,SW,221,8.0,24.0,49,0.00,,,0.00,WUHU216DAVISVP2,2013-05-31 17:55:00,
2013-05-31 14:00:00,87.4,67.8,29.98,NNE,24,4.0,24.0,52,0.00,,,0.00,WUHU216DAVISVP2,2013-05-31 18:00:00,
2013-05-31 14:05:00,87.1,66.4,29.98,ESE,107,6.0,14.0,50,0.00,,,0.00,WUHU216DAVISVP2,2013-05-31 18:05:00,
2013-05-31 14:10:00,86.8,66.1,29.98,SSW,210,8.0,24.0,50,0.00,,,0.00,WUHU216DAVISVP2,2013-05-31 18:10:00,
2013-05-31 14:15:00,86.6,65.9,29.98,NW,311,8.0,26.0,50,0.00,,,0.00,WUHU216DAVISVP2,2013-05-31 18:15:00,
2013-05-31 14:20:00,86.0,65.9,29.98,WNW,286,2.0,26.0,51,0.00,,,0.00,WUHU216DAVISVP2,2013-05-31 18:20:00,
2013-05-31 14:25:00,85.7,66.8,29.97,SSW,208,2.0,16.0,53,0.00,,,0.00,WUHU216DAVISVP2,2013-05-31 18:25:00,
2013-05-31 14:30:00,85.7,66.8,29.97,ESE,110,2.0,32.0,53,0.00,,,0.00,WUHU216DAVISVP2,2013-05-31 18:30:00,
2013-05-31 14:35:00,86.0,67.1,29.97,SSW,202,8.0,32.0,53,0.00,,,0.00,WUHU216DAVISVP2,2013-05-31 18:35:00,
2013-05-31 14:40:00,85.9,66.4,29.97,WNW,299,4.0,26.0,52,0.00,,,0.00,WUHU216DAVISVP2,2013-05-31 18:40:00,
2013-05-31 14:45:00,86.0,65.9,29.97,East,98,6.0,26.0,51,0.00,,,0.00,WUHU216DAVISVP2,2013-05-31 18:45:00,
2013-05-31 14:50:00,85.5,66.0,29.97,SE,135,8.0,16.0,52,0.00,,,0.00,WUHU216DAVISVP2,2013-05-31 18:50:00,
2013-05-31 14:55:00,85.0,66.1,29.97,East,89,2.0,20.0,53,0.00,,,0.00,WUHU216DAVISVP2,2013-05-31 18:55:00,
2013-05-31 15:00:00,84.5,66.2,29.97,West,261,4.0,26.0,54,0.00,,,0.00,WUHU216DAVISVP2,2013-05-31 19:00:00,
2013-05-31 15:05:00,84.1,65.9,29.97,WSW,245,8.0,26.0,54,0.00,,,0.00,WUHU216DAVISVP2,2013-05-31 19:05:00,
2013-05-31 15:10:00,83.7,66.0,29.97,SSW,200,8.0,24.0,55,0.00,,,0.00,WUHU216DAVISVP2,2013-05-31 19:10:00,
2013-05-31 15:15:00,83.7,66.0,29.96,WSW,240,10.0,24.0,55,0.00,,,0.00,WUHU216DAVISVP2,2013-05-31 19:15:00,
2013-05-31 15:20:00,83.8,66.1,29.96,SSW,203,2.0,22.0,55,0.00,,,0.00,WUHU216DAVISVP2,2013-05-31 19:20:00,
2013-05-31 15:26:00,83.6,65.9,29.96,South,182,4.0,20.0,55,0.00,,,0.00,WUHU216DAVISVP2,2013-05-31 19:26:00,
2013-05-31 15:31:00,84.0,67.4,29.96,South,184,2.0,20.0,57,0.00,,,0.00,WUHU216DAVISVP2,2013-05-31 19:31:00,
2013-05-31 15:36:00,84.8,67.6,29.96,South,179,10.0,16.0,56,0.00,,,0.00,WUHU216DAVISVP2,2013-05-31 19:36:00,
2013-05-31 15:41:00,85.5,67.2,29.96,ESE,120,16.0,20.0,54,0.00,,,0.00,WUHU216DAVISVP2,2013-05-31 19:41:00,
2013-05-31 15:46:00,85.1,66.2,29.96,SE,133,10.0,22.0,53,0.00,,,0.00,WUHU216DAVISVP2,2013-05-31 19:46:00,
2013-05-31 15:51:00,83.8,67.2,29.97,East,86,10.0,34.0,57,0.00,,,0.00,WUHU216DAVISVP2,2013-05-31 19:51:00,
2013-05-31 15:56:00,82.2,66.7,29.96,SE,142,8.0,34.0,59,0.00,,,0.00,WUHU216DAVISVP2,2013-05-31 19:56:00,
2013-05-31 16:01:00,81.4,67.4,29.96,SSW,203,4.0,22.0,62,0.00,,,0.00,WUHU216DAVISVP2,2013-05-31 20:01:00,
2013-05-31 16:06:00,81.1,67.6,29.96,SSW,200,0.0,20.0,63,0.00,,,0.00,WUHU216DAVISVP2,2013-05-31 20:06:00,
2013-05-31 16:11:00,82.0,67.9,29.96,West,269,4.0,14.0,62,0.00,,,0.00,WUHU216DAVISVP2,2013-05-31 20:11:00,
2013-05-31 16:16:00,83.3,68.2,29.96,SW,232,8.0,14.0,60,0.00,,,0.00,WUHU216DAVISVP2,2013-05-31 20:16:00,
2013-05-31 16:21:00,83.9,68.3,29.96,SW,215,8.0,16.0,59,0.00,,,0.00,WUHU216DAVISVP2,2013-05-31 20:21:00,
2013-05-31 16:26:00,83.3,69.2,29.96,South,179,6.0,22.0,62,0.00,,,0.00,WUHU216DAVISVP2,2013-05-31 20:26:00,
2013-05-31 16:31:00,82.6,69.0,29.96,SE,146,8.0,22.0,63,0.00,,,0.00,WUHU216DAVISVP2,2013-05-31 20:31:00,
2013-05-31 16:36:00,82.3,68.2,29.96,SSE,161,8.0,16.0,62,0.00,,,0.00,WUHU216DAVISVP2,2013-05-31 20:36:00,
2013-05-31 16:41:00,82.2,68.6,29.95,South,182,4.0,18.0,63,0.00,,,0.00,WUHU216DAVISVP2,2013-05-31 20:41:00,
2013-05-31 16:46:00,82.4,69.3,29.95,WSW,253,6.0,18.0,64,0.00,,,0.00,WUHU216DAVISVP2,2013-05-31 20:46:00,
2013-05-31 16:51:00,82.6,69.0,29.96,SSE,155,0.0,18.0,63,0.00,,,0.00,WUHU216DAVISVP2,2013-05-31 20:51:00,
2013-05-31 16:56:00,82.4,67.4,29.96,SSW,200,8.0,18.0,60,0.00,,,0.00,WUHU216DAVISVP2,2013-05-31 20:56:00,
2013-05-31 17:01:00,82.1,68.5,29.96,WNW,293,0.0,16.0,63,0.00,,,0.00,WUHU216DAVISVP2,2013-05-31 21:01:00,
2013-05-31 17:07:00,81.6,67.6,29.99,NW,314,6.0,14.0,62,0.00,,,0.00,WUHU216DAVISVP2,2013-05-31 21:07:00,
2013-05-31 17:12:00,78.5,66.0,29.98,WNW,300,2.0,22.0,65,0.00,,,0.00,WUHU216DAVISVP2,2013-05-31 21:12:00,
2013-05-31 17:17:00,76.0,66.1,29.99,NW,309,10.0,22.0,71,0.00,,,0.00,WUHU216DAVISVP2,2013-05-31 21:17:00,
2013-05-31 17:22:00,74.4,65.0,29.99,NW,319,6.0,10.0,72,0.00,,,0.00,WUHU216DAVISVP2,2013-05-31 21:22:00,
2013-05-31 17:27:00,73.3,65.0,29.99,North,5,0.0,10.0,75,0.00,,,0.00,WUHU216DAVISVP2,2013-05-31 21:27:00,
2013-05-31 17:32:00,72.4,64.9,30.01,NW,321,2.0,10.0,77,0.00,,,0.00,WUHU216DAVISVP2,2013-05-31 21:32:00,
2013-05-31 17:37:00,71.5,64.7,30.00,NE,36,0.0,10.0,79,0.00,,,0.00,WUHU216DAVISVP2,2013-05-31 21:37:00,
2013-05-31 17:42:00,70.8,64.8,30.00,West,260,0.0,10.0,81,0.00,,,0.00,WUHU216DAVISVP2,2013-05-31 21:42:00,
2013-05-31 17:47:00,70.4,64.7,29.99,WSW,242,2.0,6.0,82,0.00,,,0.00,WUHU216DAVISVP2,2013-05-31 21:47:00,
2013-05-31 17:52:00,70.3,64.9,29.98,WSW,242,4.0,4.0,83,0.00,,,0.00,WUHU216DAVISVP2,2013-05-31 21:52:00,
2013-05-31 17:57:00,70.0,64.6,29.98,WSW,242,0.0,4.0,83,0.00,,,0.00,WUHU216DAVISVP2,2013-05-31 21:57:00,
2013-05-31 18:02:00,70.0,65.0,29.98,WSW,242,0.0,4.0,84,0.00,,,0.00,WUHU216DAVISVP2,2013-05-31 22:02:00,
2013-05-31 18:07:00,69.8,65.1,30.00,WSW,242,0.0,4.0,85,0.00,,,0.00,WUHU216DAVISVP2,2013-05-31 22:07:00,
2013-05-31 18:12:00,69.7,65.7,30.00,NE,34,0.0,4.0,87,0.00,,,0.00,WUHU216DAVISVP2,2013-05-31 22:12:00,
2013-05-31 18:17:00,69.4,66.0,30.01,SW,227,10.0,10.0,89,0.08,,,0.08,WUHU216DAVISVP2,2013-05-31 22:17:00,
2013-05-31 18:22:00,68.8,65.7,29.98,SSE,156,0.0,14.0,90,0.24,,,0.24,WUHU216DAVISVP2,2013-05-31 22:22:00,
2013-05-31 18:27:00,68.5,65.7,29.98,SSW,192,0.0,14.0,91,0.24,,,0.24,WUHU216DAVISVP2,2013-05-31 22:27:00,
2013-05-31 18:32:00,68.3,65.9,29.97,SSW,192,0.0,4.0,92,0.24,,,0.24,WUHU216DAVISVP2,2013-05-31 22:32:00,
2013-05-31 18:37:00,68.2,66.1,29.97,SSW,192,2.0,2.0,93,0.25,,,0.25,WUHU216DAVISVP2,2013-05-31 22:37:00,
2013-05-31 18:42:00,68.2,66.1,29.97,SSW,192,0.0,2.0,93,0.25,,,0.25,WUHU216DAVISVP2,2013-05-31 22:42:00,
2013-05-31 18:47:00,68.2,66.4,29.97,SSW,192,0.0,2.0,94,0.25,,,0.25,WUHU216DAVISVP2,2013-05-31 22:47:00,
2013-05-31 18:52:00,68.3,66.5,29.97,SSW,192,0.0,0.0,94,0.25,,,0.25,WUHU216DAVISVP2,2013-05-31 22:52:00,
2013-05-31 18:58:00,68.3,66.5,29.98,SSW,192,0.0,0.0,94,0.25,,,0.25,WUHU216DAVISVP2,2013-05-31 22:58:00,
2013-05-31 19:03:00,68.4,66.6,29.97,SSW,192,0.0,0.0,94,0.25,,,0.25,WUHU216DAVISVP2,2013-05-31 23:03:00,
2013-05-31 19:08:00,68.6,66.8,29.98,SSW,192,0.0,0.0,94,0.25,,,0.25,WUHU216DAVISVP2,2013-05-31 23:08:00,
2013-05-31 19:13:00,68.6,66.8,29.98,SSW,192,0.0,0.0,94,0.25,,,0.25,WUHU216DAVISVP2,2013-05-31 23:13:00,
2013-05-31 19:18:00,68.5,66.7,30.02,WNW,288,2.0,6.0,94,0.15,,,0.25,WUHU216DAVISVP2,2013-05-31 23:18:00,
2013-05-31 19:23:00,68.1,66.3,30.04,South,184,8.0,16.0,94,0.10,,,0.34,WUHU216DAVISVP2,2013-05-31 23:23:00,
2013-05-31 19:28:00,66.9,64.5,30.03,NNW,346,4.0,24.0,92,0.15,,,0.40,WUHU216DAVISVP2,2013-05-31 23:28:00,
2013-05-31 19:33:00,66.5,64.4,30.03,NNW,344,4.0,24.0,93,0.24,,,0.48,WUHU216DAVISVP2,2013-05-31 23:33:00,
2013-05-31 19:38:00,66.3,64.5,30.03,ESE,106,4.0,8.0,94,0.25,,,0.50,WUHU216DAVISVP2,2013-05-31 23:38:00,
2013-05-31 19:43:00,66.2,64.4,30.02,WSW,242,2.0,6.0,94,0.31,,,0.56,WUHU216DAVISVP2,2013-05-31 23:43:00,
2013-05-31 19:48:00,66.1,64.3,30.02,West,263,0.0,4.0,94,0.34,,,0.59,WUHU216DAVISVP2,2013-05-31 23:48:00,
2013-05-31 19:53:00,66.1,64.6,30.02,West,263,0.0,4.0,95,0.35,,,0.60,WUHU216DAVISVP2,2013-05-31 23:53:00,
2013-05-31 19:58:00,66.1,64.6,30.02,West,262,0.0,6.0,95,0.36,,,0.61,WUHU216DAVISVP2,2013-05-31 23:58:00,
2013-05-31 20:03:00,66.1,64.6,30.02,West,262,0.0,6.0,95,0.38,,,0.63,WUHU216DAVISVP2,2013-06-01 00:03:00,
2013-05-31 20:08:00,66.2,64.7,30.01,SSW,192,0.0,2.0,95,0.39,,,0.64,WUHU216DAVISVP2,2013-06-01 00:08:00,
2013-05-31 20:13:00,66.2,64.7,30.01,SSW,192,0.0,2.0,95,0.40,,,0.65,WUHU216DAVISVP2,2013-06-01 00:13:00,
2013-05-31 20:18:00,66.2,64.7,30.00,SSW,192,0.0,2.0,95,0.41,,,0.66,WUHU216DAVISVP2,2013-06-01 00:18:00,
2013-05-31 20:23:00,66.3,65.1,30.00,SSW,192,0.0,0.0,96,0.31,,,0.66,WUHU216DAVISVP2,2013-06-01 00:23:00,
2013-05-31 20:29:00,66.2,65.0,30.00,SSW,192,0.0,2.0,96,0.26,,,0.67,WUHU216DAVISVP2,2013-06-01 00:29:00,
2013-05-31 20:34:00,66.3,65.1,30.00,SSW,192,0.0,2.0,96,0.19,,,0.68,WUHU216DAVISVP2,2013-06-01 00:34:00,
2013-05-31 20:39:00,66.3,65.1,30.00,SSW,192,0.0,0.0,96,0.17,,,0.68,WUHU216DAVISVP2,2013-06-01 00:39:00,
2013-05-31 20:44:00,66.3,65.1,30.00,SSW,192,0.0,0.0,96,0.12,,,0.69,WUHU216DAVISVP2,2013-06-01 00:44:00,
2013-05-31 20:49:00,66.3,65.1,30.00,SSW,192,0.0,2.0,96,0.10,,,0.69,WUHU216DAVISVP2,2013-06-01 00:49:00,
2013-05-31 20:54:00,66.3,65.1,29.99,South,186,0.0,2.0,96,0.09,,,0.69,WUHU216DAVISVP2,2013-06-01 00:54:00,
2013-05-31 20:59:00,66.3,65.1,29.99,South,186,0.0,2.0,96,0.07,,,0.69,WUHU216DAVISVP2,2013-06-01 00:59:00,
2013-05-31 21:04:00,66.3,65.1,29.99,South,182,4.0,4.0,96,0.06,,,0.69,WUHU216DAVISVP2,2013-06-01 01:04:00,
2013-05-31 21:09:00,66.2,65.0,29.98,South,169,0.0,4.0,96,0.05,,,0.69,WUHU216DAVISVP2,2013-06-01 01:09:00,
2013-05-31 21:14:00,66.2,65.0,29.99,South,189,0.0,4.0,96,0.04,,,0.69,WUHU216DAVISVP2,2013-06-01 01:14:00,
2013-05-31 21:19:00,66.2,65.0,29.98,South,189,0.0,4.0,96,0.03,,,0.69,WUHU216DAVISVP2,2013-06-01 01:19:00,
2013-05-31 21:24:00,66.2,65.0,29.98,South,186,0.0,6.0,96,0.02,,,0.69,WUHU216DAVISVP2,2013-06-01 01:24:00,
2013-05-31 21:29:00,66.0,64.8,29.98,SE,130,0.0,6.0,96,0.02,,,0.69,WUHU216DAVISVP2,2013-06-01 01:29:00,
2013-05-31 21:34:00,65.9,64.7,29.98,SSE,155,0.0,6.0,96,0.01,,,0.69,WUHU216DAVISVP2,2013-06-01 01:34:00,
2013-05-31 21:39:00,65.9,64.7,29.97,SSW,193,0.0,4.0,96,0.01,,,0.69,WUHU216DAVISVP2,2013-06-01 01:39:00,
2013-05-31 21:44:00,65.9,64.7,29.98,SSW,193,0.0,4.0,96,0.00,,,0.69,WUHU216DAVISVP2,2013-06-01 01:44:00,
2013-05-31 21:49:00,65.9,64.7,29.98,SSW,193,0.0,2.0,96,0.00,,,0.69,WUHU216DAVISVP2,2013-06-01 01:49:00,
2013-05-31 21:54:00,65.9,64.7,29.98,SSW,193,0.0,2.0,96,0.00,,,0.69,WUHU216DAVISVP2,2013-06-01 01:54:00,
2013-05-31 21:59:00,65.9,64.7,29.98,SSW,193,2.0,2.0,96,0.00,,,0.69,WUHU216DAVISVP2,2013-06-01 01:59:00,
2013-05-31 22:05:00,65.9,64.7,30.00,WNW,295,2.0,2.0,96,0.01,,,0.70,WUHU216DAVISVP2,2013-06-01 02:05:00,
2013-05-31 22:10:00,65.8,64.6,30.00,South,170,4.0,4.0,96,0.01,,,0.70,WUHU216DAVISVP2,2013-06-01 02:10:00,
2013-05-31 22:15:00,65.7,64.5,29.99,South,179,4.0,10.0,96,0.05,,,0.74,WUHU216DAVISVP2,2013-06-01 02:15:00,
2013-05-31 22:20:00,65.6,64.4,29.99,South,176,6.0,10.0,96,0.06,,,0.75,WUHU216DAVISVP2,2013-06-01 02:20:00,
2013-05-31 22:25:00,65.6,64.4,29.99,South,185,0.0,16.0,96,0.06,,,0.75,WUHU216DAVISVP2,2013-06-01 02:25:00,
2013-05-31 22:30:00,65.7,64.5,29.99,SSW,207,4.0,16.0,96,0.06,,,0.75,WUHU216DAVISVP2,2013-06-01 02:30:00,
2013-05-31 22:35:00,65.7,64.5,30.00,WSW,240,2.0,6.0,96,0.06,,,0.75,WUHU216DAVISVP2,2013-06-01 02:35:00,
2013-05-31 22:40:00,65.7,64.5,30.00,South,176,0.0,10.0,96,0.06,,,0.75,WUHU216DAVISVP2,2013-06-01 02:40:00,
2013-05-31 22:45:00,65.7,64.5,29.99,SE,134,6.0,10.0,96,0.07,,,0.76,WUHU216DAVISVP2,2013-06-01 02:45:00,
2013-05-31 22:50:00,65.7,64.5,29.99,SSW,212,2.0,8.0,96,0.07,,,0.76,WUHU216DAVISVP2,2013-06-01 02:50:00,
2013-05-31 22:55:00,65.7,64.5,29.99,South,180,0.0,8.0,96,0.08,,,0.77,WUHU216DAVISVP2,2013-06-01 02:55:00,
2013-05-31 23:00:00,65.8,64.6,29.98,South,180,0.0,8.0,96,0.07,,,0.77,WUHU216DAVISVP2,2013-06-01 03:00:00,
2013-05-31 23:05:00,65.7,64.5,29.98,South,180,0.0,0.0,96,0.08,,,0.78,WUHU216DAVISVP2,2013-06-01 03:05:00,
2013-05-31 23:10:00,65.7,64.5,29.99,South,180,0.0,2.0,96,0.07,,,0.78,WUHU216DAVISVP2,2013-06-01 03:10:00,
2013-05-31 23:15:00,65.7,64.5,29.99,South,180,0.0,2.0,96,0.05,,,0.79,WUHU216DAVISVP2,2013-06-01 03:15:00,
2013-05-31 23:20:00,65.8,64.9,29.99,South,180,0.0,4.0,97,0.04,,,0.79,WUHU216DAVISVP2,2013-06-01 03:20:00,
2013-05-31 23:25:00,65.8,64.9,29.98,South,180,0.0,4.0,97,0.04,,,0.79,WUHU216DAVISVP2,2013-06-01 03:25:00,
2013-05-31 23:30:00,65.8,64.9,29.98,WSW,242,2.0,8.0,97,0.05,,,0.80,WUHU216DAVISVP2,2013-06-01 03:30:00,
2013-05-31 23:35:00,65.9,65.0,29.98,SSW,207,0.0,8.0,97,0.05,,,0.80,WUHU216DAVISVP2,2013-06-01 03:35:00,
2013-05-31 23:40:00,65.9,65.0,29.98,SSW,207,0.0,10.0,97,0.04,,,0.80,WUHU216DAVISVP2,2013-06-01 03:40:00,
2013-05-31 23:45:00,66.0,65.1,29.98,WSW,257,0.0,10.0,97,0.05,,,0.81,WUHU216DAVISVP2,2013-06-01 03:45:00,
2013-05-31 23:51:00,66.0,65.1,29.98,South,178,0.0,10.0,97,0.05,,,0.81,WUHU216DAVISVP2,2013-06-01 03:51:00,
2013-05-31 23:56:00,66.0,65.1,29.97,SSE,161,4.0,6.0,97,0.04,,,0.81,WUHU216DAVISVP2,2013-06-01 03:56:00,